Palacios, TX

4:52 PM CDT on April 24, 2017 (GMT -0500)
Palacios Municipal

Weather History for KPSX - November, 2013

Change the Weather History Date:

Thursday, November 28, 2013

  Actual Average Record
Temperature  
Mean Temperature 46 °F -  
Max Temperature 60 °F 66 °F 83 °F (1981)
Min Temperature 32 °F 46 °F 27 °F (1992)
Degree Days  
Heating Degree Days 19    
Moisture  
Dew Point 39 °F    
Average Humidity 79    
Maximum Humidity 97    
Minimum Humidity 55    
Precipitation  
Precipitation 0.00 in - - ()
Sea Level Pressure  
Sea Level Pressure 30.41 in    
Wind  
Wind Speed 5 mph (NNE)    
Max Wind Speed 9 mph    
Max Gust Speed -    
Visibility 10 miles    
Events      
Averages and records for this station are not official NWS values.
T = Trace of Precipitation, MM = Missing Value Source: NWS Daily Summary

Daily Weather History Graph

Daily Weather History Graph

Search for Another Location

Airport or City:

Trip Planner

Search our weather history database for the weather conditions in past years. The results will help you decide how hot, cold, wet, or windy it might be!

Date:

Astronomy

Nov. 28, 2013 Rise Set
Actual Time 6:58 AM CST 5:27 PM CST
Civil Twilight 6:32 AM CST 5:53 PM CST
Nautical Twilight 6:03 AM CST 6:22 PM CST
Astronomical Twilight 5:35 AM CST 6:50 PM CST
Moon 2:22 AM CST (11/28) 2:19 PM CST (11/28)
Length of Visible Light 11h 20m
Length of Day
10h 29m
Waning Crescent, 22% of the Moon is Illuminated
Nov 28
Waning Crescent
Dec 2
New
Dec 9
First Quarter
Dec 17
Full
Dec 25
Last Quarter

Hourly Weather History & Observations

Time (CST) Temp. Windchill Dew Point Humidity Pressure Visibility Wind Dir Wind Speed Gust Speed Precip Events Conditions
12:53 AM 36.0 °F 32.1 °F 33.1 °F 89% 30.40 in 10.0 mi NNE 4.6 mph - N/A   Clear
1:53 AM 35.1 °F 31.0 °F 32.0 °F 89% 30.41 in 10.0 mi North 4.6 mph - N/A   Clear
2:53 AM 32.0 °F 25.6 °F 30.0 °F 92% 30.39 in 10.0 mi NNE 6.9 mph - N/A   Clear
3:53 AM 34.0 °F 29.8 °F 30.9 °F 89% 30.40 in 10.0 mi North 4.6 mph - N/A   Clear
4:53 AM 34.0 °F 29.8 °F 30.9 °F 89% 30.39 in 10.0 mi NNE 4.6 mph - N/A   Clear
5:53 AM 35.1 °F 31.0 °F 32.0 °F 89% 30.40 in 10.0 mi NNE 4.6 mph - N/A   Clear
6:53 AM 35.1 °F 30.1 °F 32.0 °F 89% 30.41 in 10.0 mi North 5.8 mph - N/A   Clear
7:53 AM 37.9 °F 33.5 °F 34.0 °F 86% 30.43 in 10.0 mi North 5.8 mph - N/A   Clear
8:53 AM 42.1 °F 37.7 °F 35.1 °F 76% 30.45 in 10.0 mi NNE 6.9 mph - N/A   Clear
9:53 AM 46.0 °F 41.4 °F 37.0 °F 71% 30.46 in 10.0 mi NNE 9.2 mph - N/A   Clear
10:53 AM 51.1 °F - 39.9 °F 66% 30.45 in 10.0 mi North 5.8 mph - N/A   Clear
11:53 AM 55.0 °F - 42.1 °F 62% 30.43 in 10.0 mi North 5.8 mph - N/A   Clear
12:53 PM 55.9 °F - 43.0 °F 62% 30.40 in 10.0 mi ENE 4.6 mph - N/A   Clear
1:53 PM 59.0 °F - 43.0 °F 55% 30.37 in 10.0 mi Calm Calm - N/A   Clear
2:53 PM 60.1 °F - 44.1 °F 55% 30.36 in 10.0 mi Calm Calm - N/A   Scattered Clouds
3:53 PM 60.1 °F - 44.1 °F 55% 30.37 in 10.0 mi Calm Calm - N/A   Clear
4:53 PM 57.0 °F - 46.0 °F 67% 30.37 in 10.0 mi South 3.5 mph - N/A   Clear
5:53 PM 52.0 °F - 46.0 °F 80% 30.38 in 10.0 mi East 3.5 mph - N/A   Clear
6:53 PM 50.0 °F - 46.0 °F 86% 30.40 in 10.0 mi East 6.9 mph - N/A   Clear
7:53 PM 50.0 °F - 46.0 °F 86% 30.42 in 10.0 mi ENE 8.1 mph - N/A   Partly Cloudy
8:53 PM 48.0 °F - 45.0 °F 89% 30.43 in 10.0 mi ENE 9.2 mph - N/A   Clear
9:53 PM 46.9 °F - 44.1 °F 90% 30.44 in 10.0 mi NE 8.1 mph - N/A   Clear
10:53 PM 46.0 °F 42.5 °F 44.1 °F 93% 30.45 in 10.0 mi NNE 6.9 mph - N/A   Clear
11:53 PM 45.0 °F 40.6 °F 44.1 °F 97% 30.44 in 9.0 mi NNE 8.1 mph - N/A   Clear